When you browse on this site, cookies collect data to enhance your experience and personalize the content and advertising you see.
Visit our Privacy Policy to learn more. By continuing to use the site, you agree to this use of cookies and data.
  • In Switzerland
  • List of Countries
  • For 7 days
  • Water Temperature
  • Weather Map
  • Weather Widgets
  • user-avatar
    Login

    Hourly Weather Ituni

    Today, 24 August, Saturday

    Time Temperature Precipitation Wind Pressure Humidity
    00:00 +25°C° 0.3 mm 1 mps 754 mmHg 97%
    01:00 +25°C° 0.3 mm 1 mps 754 mmHg 98%
    02:00 +22°C° 0.3 mm 0 mps 753 mmHg 98%
    03:00 +22°C° 0.1 mm 0 mps 753 mmHg 98%
    04:00 +22°C° 0.1 mm 0 mps 754 mmHg 99%
    05:00 +22°C° 0.1 mm 0 mps 754 mmHg 99%
    06:00 +23°C° 0 mm 0 mps 754 mmHg 96%
    07:00 +24°C° 0 mm 0 mps 754 mmHg 92%
    08:00 +25°C° 0 mm 0 mps 755 mmHg 89%
    09:00 +27°C° 0.6 mm 0 mps 755 mmHg 82%
    10:00 +30°C° 0.6 mm 1 mps 755 mmHg 75%
    11:00 +32°C° 0.6 mm 1 mps 755 mmHg 68%
    12:00 +32°C° 0.4 mm 1 mps 754 mmHg 66%
    13:00 +33°C° 0.4 mm 1 mps 753 mmHg 64%
    14:00 +34°C° 0.4 mm 2 mps 752 mmHg 61%
    15:00 +32°C° 1 mm 2 mps 752 mmHg 71%
    16:00 +30°C° 1 mm 1 mps 752 mmHg 80%
    17:00 +28°C° 1 mm 1 mps 752 mmHg 90%
    18:00 +28°C° 0.1 mm 1 mps 752 mmHg 92%
    19:00 +27°C° 0.1 mm 1 mps 753 mmHg 94%
    20:00 +26°C° 0.1 mm 1 mps 753 mmHg 96%
    21:00 +25°C° 0.1 mm 1 mps 754 mmHg 97%
    22:00 +25°C° 0.1 mm 1 mps 754 mmHg 97%
    23:00 +25°C° 0.1 mm 1 mps 754 mmHg 98%

    Tomorrow, 25 August, Sunday

    Time Temperature Precipitation Wind Pressure Humidity
    00:00 +25°C° 0.1 mm 1 mps 754 mmHg 98%
    01:00 +25°C° 0.1 mm 1 mps 753 mmHg 98%
    02:00 +22°C° 0.1 mm 0 mps 753 mmHg 99%
    03:00 +22°C° 0.1 mm 0 mps 753 mmHg 99%
    04:00 +22°C° 0.1 mm 0 mps 753 mmHg 99%
    05:00 +22°C° 0.1 mm 0 mps 753 mmHg 99%
    06:00 +23°C° 0 mm 0 mps 754 mmHg 95%
    07:00 +24°C° 0 mm 0 mps 754 mmHg 92%
    08:00 +26°C° 0 mm 0 mps 754 mmHg 89%
    09:00 +28°C° 0 mm 0 mps 754 mmHg 77%
    10:00 +32°C° 0 mm 1 mps 754 mmHg 65%
    11:00 +34°C° 0 mm 1 mps 754 mmHg 53%
    12:00 +34°C° 0.4 mm 1 mps 753 mmHg 55%
    13:00 +34°C° 0.4 mm 1 mps 752 mmHg 57%
    14:00 +34°C° 0.4 mm 1 mps 752 mmHg 58%
    15:00 +32°C° 0.7 mm 1 mps 752 mmHg 68%
    16:00 +30°C° 0.7 mm 1 mps 751 mmHg 77%
    17:00 +29°C° 0.7 mm 1 mps 751 mmHg 86%
    18:00 +28°C° 0.3 mm 1 mps 752 mmHg 89%
    19:00 +26°C° 0.3 mm 1 mps 752 mmHg 93%
    20:00 +25°C° 0.3 mm 1 mps 753 mmHg 96%
    21:00 +25°C° 0 mm 1 mps 753 mmHg 97%
    22:00 +25°C° 0 mm 1 mps 753 mmHg 97%
    23:00 +25°C° 0 mm 1 mps 754 mmHg 98%

    Day after tomorrow, 26 August, Monday

    Time Temperature Precipitation Wind Pressure Humidity
    00:00 +22°C° 0 mm 0 mps 753 mmHg 98%
    01:00 +22°C° 0 mm 0 mps 752 mmHg 98%
    02:00 +22°C° 0 mm 0 mps 752 mmHg 98%
    03:00 +22°C° 0 mm 0 mps 752 mmHg 98%
    04:00 +22°C° 0 mm 0 mps 752 mmHg 99%
    05:00 +22°C° 0 mm 0 mps 752 mmHg 99%
    06:00 +23°C° 0.2 mm 0 mps 753 mmHg 96%
    07:00 +24°C° 0.2 mm 0 mps 753 mmHg 93%
    08:00 +25°C° 0.2 mm 0 mps 754 mmHg 91%
    09:00 +27°C° 0.2 mm 0 mps 754 mmHg 81%
    10:00 +31°C° 0.2 mm 1 mps 754 mmHg 71%
    11:00 +33°C° 0.2 mm 1 mps 753 mmHg 61%
    12:00 +33°C° 0.7 mm 1 mps 753 mmHg 63%
    13:00 +32°C° 0.7 mm 1 mps 752 mmHg 65%
    14:00 +32°C° 0.7 mm 1 mps 751 mmHg 68%
    15:00 +32°C° 0.9 mm 1 mps 751 mmHg 71%
    16:00 +31°C° 0.9 mm 1 mps 751 mmHg 75%
    17:00 +28°C° 0.9 mm 0 mps 751 mmHg 78%
    18:00 +27°C° 0.1 mm 0 mps 751 mmHg 82%
    19:00 +27°C° 0.1 mm 1 mps 752 mmHg 87%
    20:00 +26°C° 0.1 mm 1 mps 752 mmHg 91%
    21:00 +26°C° 0 mm 1 mps 752 mmHg 93%
    22:00 +23°C° 0 mm 0 mps 753 mmHg 95%
    23:00 +23°C° 0 mm 0 mps 753 mmHg 96%

    27 August, Tuesday

    Time Temperature Precipitation Wind Pressure Humidity
    00:00 +23°C° 0 mm 0 mps 752 mmHg 97%
    01:00 +22°C° 0 mm 0 mps 752 mmHg 97%
    02:00 +22°C° 0 mm 0 mps 751 mmHg 98%
    03:00 +22°C° 0 mm 0 mps 752 mmHg 98%
    04:00 +22°C° 0 mm 0 mps 752 mmHg 98%
    05:00 +22°C° 0 mm 0 mps 752 mmHg 98%
    06:00 +23°C° 0.3 mm 0 mps 753 mmHg 96%
    07:00 +24°C° 0.3 mm 0 mps 753 mmHg 94%
    08:00 +25°C° 0.3 mm 0 mps 754 mmHg 91%
    09:00 +27°C° 0.5 mm 0 mps 754 mmHg 79%
    10:00 +32°C° 0.5 mm 1 mps 753 mmHg 68%
    11:00 +34°C° 0.5 mm 1 mps 753 mmHg 56%
    12:00 +34°C° 0.2 mm 1 mps 753 mmHg 53%
    13:00 +35°C° 0.2 mm 1 mps 752 mmHg 51%
    14:00 +35°C° 0.2 mm 1 mps 751 mmHg 48%
    15:00 +34°C° 0 mm 1 mps 751 mmHg 52%
    16:00 +34°C° 0 mm 1 mps 750 mmHg 55%
    17:00 +31°C° 0 mm 0 mps 750 mmHg 59%
    18:00 +29°C° 0 mm 0 mps 751 mmHg 64%
    19:00 +27°C° 0 mm 0 mps 751 mmHg 68%
    20:00 +26°C° 0 mm 0 mps 752 mmHg 73%
    21:00 +25°C° 0 mm 0 mps 752 mmHg 78%
    22:00 +24°C° 0 mm 0 mps 752 mmHg 82%
    23:00 +26°C° 0 mm 1 mps 753 mmHg 87%

    28 August, Wednesday

    Time Temperature Precipitation Wind Pressure Humidity
    00:00 +24°C° 0 mm 0 mps 752 mmHg 90%
    01:00 +23°C° 0 mm 0 mps 752 mmHg 93%
    02:00 +23°C° 0 mm 0 mps 751 mmHg 96%
    03:00 +23°C° 0.5 mm 0 mps 751 mmHg 97%
    04:00 +22°C° 0.5 mm 0 mps 752 mmHg 98%
    05:00 +22°C° 0.5 mm 0 mps 752 mmHg 98%
    06:00 +23°C° 0.2 mm 0 mps 752 mmHg 96%
    07:00 +26°C° 0.2 mm 1 mps 753 mmHg 93%
    08:00 +27°C° 0.2 mm 1 mps 754 mmHg 90%
    09:00 +29°C° 0.2 mm 1 mps 754 mmHg 78%
    10:00 +32°C° 0.2 mm 1 mps 754 mmHg 65%
    11:00 +34°C° 0.2 mm 1 mps 754 mmHg 52%
    12:00 +35°C° 0 mm 1 mps 753 mmHg 48%
    13:00 +36°C° 0 mm 1 mps 752 mmHg 43%
    14:00 +37°C° 0 mm 1 mps 751 mmHg 39%
    15:00 +36°C° 0 mm 1 mps 751 mmHg 43%
    16:00 +33°C° 0 mm 0 mps 750 mmHg 48%
    17:00 +32°C° 0 mm 0 mps 750 mmHg 53%
    18:00 +30°C° 0 mm 0 mps 750 mmHg 59%
    19:00 +30°C° 0 mm 1 mps 751 mmHg 65%
    20:00 +28°C° 0 mm 1 mps 751 mmHg 71%
    21:00 +27°C° 0 mm 1 mps 751 mmHg 78%
    22:00 +26°C° 0 mm 1 mps 752 mmHg 85%
    23:00 +25°C° 0 mm 1 mps 752 mmHg 92%

    29 August, Thursday

    Time Temperature Precipitation Wind Pressure Humidity
    00:00 +23°C° 0 mm 0 mps 752 mmHg 94%
    01:00 +23°C° 0 mm 0 mps 751 mmHg 96%
    02:00 +22°C° 0 mm 0 mps 751 mmHg 98%
    03:00 +22°C° 0.5 mm 0 mps 751 mmHg 98%
    04:00 +22°C° 0.5 mm 0 mps 751 mmHg 99%
    05:00 +22°C° 0.5 mm 0 mps 751 mmHg 99%
    06:00 +23°C° 0.2 mm 0 mps 752 mmHg 96%
    07:00 +24°C° 0.2 mm 0 mps 752 mmHg 93%
    08:00 +27°C° 0.2 mm 1 mps 753 mmHg 91%
    09:00 +29°C° 0.8 mm 1 mps 753 mmHg 81%
    10:00 +31°C° 0.8 mm 1 mps 753 mmHg 70%
    11:00 +33°C° 0.8 mm 1 mps 753 mmHg 60%
    12:00 +34°C° 0.1 mm 1 mps 752 mmHg 55%
    13:00 +35°C° 0.1 mm 1 mps 751 mmHg 50%
    14:00 +36°C° 0.1 mm 1 mps 750 mmHg 45%
    15:00 +35°C° 0 mm 1 mps 750 mmHg 49%
    16:00 +35°C° 0 mm 1 mps 750 mmHg 54%
    17:00 +32°C° 0 mm 0 mps 750 mmHg 58%
    18:00 +31°C° 0.4 mm 1 mps 750 mmHg 69%
    19:00 +29°C° 0.4 mm 1 mps 750 mmHg 80%
    20:00 +26°C° 0.4 mm 1 mps 751 mmHg 90%
    21:00 +26°C° 0.3 mm 1 mps 751 mmHg 93%
    22:00 +25°C° 0.3 mm 1 mps 752 mmHg 95%
    23:00 +25°C° 0.3 mm 1 mps 752 mmHg 97%
    Show more